Precipitable_Water
1.82 1.81 1.85 1.84 1.84 1.87 1.90 1.88 1.80 1.76 1.74 1.71 1.69 1.66 1.66 1.65 1.67 1.67 1.68 1.67 1.66 1.63 1.64 1.67 1.72 1.81 1.88 1.87 1.85 1.87 1.89 1.81 1.83 1.85 1.84 1.83 1.86 1.88 1.92 1.96 2.00 2.04 2.01 1.93 1.88 1.88 1.88 1.89 1.89 1.85 1.74 1.64 1.61 1.61 1.67 1.77 1.83 1.87 1.91 1.95 1.94 1.91 1.89 1.87 1.85 1.79 1.73 1.73 1.71 1.72 1.70 1.60 1.53 1.52 1.52 1.53 1.54 1.53 1.52 1.55 1.63 1.64 1.62 1.58 1.64
1.78 1.86 1.87 1.90 1.90 1.89 1.88 1.79 1.72 1.68 1.65 1.60 1.56 1.52 1.53 1.55 1.54 1.53 1.54 1.55 1.54 1.53 1.55 1.56 1.58 1.64 1.73 1.68 1.80 1.90 1.85 1.77 1.79 1.84 1.86 1.85 1.87 1.88 1.87 1.89 1.93 1.98 1.97 1.94 1.91 1.90 1.89 1.89 1.91 1.86 1.73 1.62 1.60 1.59 1.65 1.75 1.84 1.88 1.93 1.92 1.90 1.89 1.88 1.87 1.82 1.73 1.67 1.71 1.68 1.61 1.60 1.59 1.58 1.57 1.57 1.56 1.52 1.49 1.50 1.54 1.61 1.64 1.60 1.64 1.66
1.79 1.86 1.90 1.87 1.90 1.91 1.88 1.78 1.70 1.61 1.54 1.53 1.56 1.63 1.67 1.67 1.66 1.65 1.64 1.66 1.68 1.70 1.71 1.73 1.70 1.70 1.69 1.71 1.71 1.76 1.80 1.77 1.81 1.84 1.82 1.84 1.88 1.88 1.87 1.88 1.90 1.92 1.94 1.96 1.95 1.94 1.91 1.90 1.90 1.82 1.69 1.59 1.57 1.57 1.63 1.71 1.83 1.92 1.93 1.89 1.85 1.85 1.86 1.83 1.75 1.67 1.63 1.60 1.56 1.53 1.50 1.56 1.58 1.57 1.60 1.66 1.60 1.52 1.48 1.50 1.59 1.65 1.62 1.65 1.65
1.77 1.85 1.87 1.79 1.78 1.83 1.79 1.71 1.60 1.53 1.54 1.60 1.65 1.67 1.69 1.67 1.65 1.65 1.67 1.70 1.72 1.75 1.79 1.84 1.82 1.86 1.84 1.86 1.81 1.69 1.66 1.73 1.77 1.72 1.77 1.84 1.90 1.93 1.92 1.92 1.91 1.92 1.94 1.96 1.94 1.93 1.93 1.94 1.89 1.73 1.61 1.55 1.55 1.56 1.58 1.71 1.87 1.93 1.91 1.87 1.83 1.83 1.82 1.74 1.64 1.57 1.55 1.55 1.57 1.56 1.51 1.46 1.46 1.53 1.56 1.57 1.57 1.53 1.49 1.49 1.56 1.60 1.61 1.61 1.66
1.76 1.81 1.78 1.75 1.74 1.72 1.70 1.55 1.49 1.56 1.63 1.66 1.70 1.72 1.74 1.73 1.71 1.66 1.65 1.66 1.68 1.71 1.74 1.77 1.82 1.85 1.88 1.87 1.86 1.79 1.72 1.64 1.64 1.67 1.75 1.85 1.88 1.91 1.90 1.92 1.92 1.91 1.94 1.94 1.91 1.88 1.78 1.70 1.71 1.61 1.55 1.55 1.57 1.56 1.63 1.80 1.89 1.90 1.86 1.82 1.82 1.82 1.78 1.66 1.57 1.56 1.54 1.53 1.55 1.56 1.50 1.40 1.34 1.35 1.44 1.50 1.54 1.54 1.48 1.48 1.53 1.59 1.63 1.60 1.61
1.72 1.74 1.75 1.75 1.69 1.60 1.52 1.46 1.54 1.64 1.70 1.73 1.75 1.76 1.76 1.75 1.73 1.71 1.70 1.69 1.67 1.68 1.69 1.74 1.78 1.80 1.88 1.93 1.86 1.80 1.75 1.68 1.64 1.67 1.75 1.84 1.87 1.88 1.89 1.89 1.90 1.89 1.90 1.94 1.97 1.94 1.89 1.77 1.66 1.56 1.57 1.59 1.61 1.65 1.76 1.88 1.89 1.84 1.79 1.78 1.79 1.81 1.74 1.63 1.59 1.60 1.61 1.60 1.64 1.65 1.57 1.42 1.33 1.33 1.34 1.42 1.50 1.51 1.49 1.49 1.51 1.54 1.60 1.64 1.61
1.76 1.77 1.77 1.76 1.70 1.54 1.43 1.51 1.62 1.68 1.72 1.73 1.72 1.73 1.75 1.76 1.78 1.80 1.80 1.78 1.74 1.70 1.69 1.70 1.73 1.80 1.83 1.80 1.81 1.81 1.83 1.74 1.70 1.72 1.81 1.83 1.86 1.90 1.94 1.90 1.87 1.91 1.94 1.98 1.97 1.94 1.88 1.75 1.70 1.65 1.62 1.63 1.68 1.78 1.89 1.88 1.83 1.78 1.75 1.75 1.78 1.76 1.68 1.64 1.62 1.63 1.70 1.72 1.70 1.69 1.59 1.40 1.34 1.39 1.41 1.43 1.48 1.49 1.51 1.54 1.52 1.53 1.58 1.61 1.63
1.77 1.80 1.81 1.77 1.66 1.45 1.51 1.62 1.69 1.72 1.71 1.73 1.73 1.74 1.77 1.79 1.82 1.82 1.83 1.84 1.86 1.85 1.81 1.78 1.77 1.79 1.77 1.85 1.85 1.84 1.84 1.83 1.81 1.79 1.83 1.85 1.89 1.95 1.95 1.89 1.91 1.95 2.00 2.00 1.96 1.97 1.92 1.85 1.80 1.75 1.73 1.69 1.75 1.84 1.86 1.86 1.83 1.81 1.79 1.79 1.76 1.69 1.63 1.60 1.59 1.61 1.63 1.65 1.65 1.64 1.56 1.40 1.40 1.43 1.43 1.45 1.49 1.56 1.59 1.57 1.55 1.53 1.54 1.53 1.52
1.72 1.76 1.74 1.66 1.52 1.47 1.60 1.67 1.71 1.74 1.75 1.75 1.76 1.80 1.82 1.83 1.83 1.85 1.86 1.89 1.91 1.89 1.88 1.87 1.86 1.76 1.75 1.85 1.90 1.92 1.90 1.87 1.89 1.89 1.88 1.91 1.92 1.96 1.95 1.89 1.93 1.95 2.01 1.98 1.97 1.96 1.95 1.94 1.97 1.94 1.79 1.70 1.78 1.82 1.81 1.82 1.81 1.79 1.80 1.80 1.75 1.65 1.61 1.59 1.60 1.63 1.64 1.64 1.63 1.62 1.57 1.47 1.49 1.51 1.48 1.51 1.57 1.65 1.66 1.69 1.63 1.55 1.51 1.51 1.47
1.65 1.67 1.68 1.56 1.49 1.56 1.64 1.70 1.79 1.79 1.76 1.77 1.78 1.80 1.84 1.88 1.89 1.91 1.91 1.95 1.95 1.96 1.93 1.92 1.81 1.83 1.83 1.93 1.96 1.95 1.94 1.93 1.97 1.98 1.94 1.93 1.95 1.98 1.99 1.94 1.93 1.98 2.00 1.98 1.97 1.96 1.95 1.97 1.96 1.86 1.77 1.74 1.80 1.85 1.85 1.84 1.81 1.75 1.74 1.72 1.66 1.60 1.56 1.57 1.61 1.64 1.64 1.61 1.56 1.52 1.49 1.48 1.45 1.47 1.47 1.49 1.51 1.54 1.55 1.52 1.52 1.55 1.55 1.53 1.51
1.55 1.64 1.68 1.59 1.52 1.62 1.70 1.82 1.84 1.81 1.76 1.77 1.80 1.85 1.88 1.89 1.91 1.92 1.92 1.91 1.91 1.96 1.97 1.93 1.88 1.87 1.98 2.00 1.96 1.93 1.93 1.95 2.04 2.04 1.99 2.01 1.99 2.00 2.09 2.01 1.98 2.01 2.00 1.97 2.01 2.01 1.99 1.97 1.89 1.81 1.78 1.66 1.62 1.68 1.72 1.67 1.62 1.59 1.60 1.60 1.57 1.54 1.55 1.60 1.67 1.65 1.65 1.63 1.63 1.56 1.45 1.37 1.43 1.47 1.48 1.50 1.50 1.51 1.54 1.57 1.61 1.62 1.60 1.61 1.59
1.55 1.61 1.64 1.56 1.55 1.67 1.77 1.81 1.84 1.83 1.79 1.82 1.83 1.88 1.95 1.97 1.95 1.98 1.93 1.92 1.93 1.95 1.97 1.94 1.94 1.93 1.95 1.96 1.96 1.96 1.97 1.96 2.03 2.03 2.05 2.04 2.00 1.93 1.88 1.93 2.02 2.03 2.02 2.00 2.01 2.00 1.99 1.96 1.89 1.84 1.77 1.64 1.50 1.48 1.47 1.46 1.44 1.46 1.49 1.50 1.49 1.48 1.52 1.60 1.66 1.63 1.63 1.59 1.55 1.54 1.44 1.40 1.44 1.46 1.48 1.47 1.48 1.56 1.57 1.61 1.65 1.67 1.71 1.72 1.65
1.52 1.55 1.53 1.57 1.65 1.69 1.81 1.88 1.92 1.86 1.87 1.89 1.95 1.96 1.97 1.95 1.94 1.96 1.95 1.93 1.95 1.96 1.97 1.92 1.93 1.97 1.98 1.96 1.97 2.01 2.03 1.97 1.97 2.08 2.12 2.10 2.02 1.94 1.93 2.01 2.04 2.09 2.04 2.01 1.99 2.01 2.00 1.95 1.90 1.85 1.76 1.64 1.56 1.47 1.40 1.37 1.38 1.39 1.40 1.41 1.42 1.42 1.48 1.55 1.60 1.58 1.55 1.50 1.47 1.48 1.43 1.40 1.42 1.46 1.47 1.46 1.47 1.50 1.60 1.64 1.65 1.69 1.72 1.72 1.71
1.47 1.51 1.56 1.66 1.67 1.74 1.81 1.92 1.92 1.94 1.93 1.98 1.95 1.97 1.94 1.96 1.95 1.93 1.94 1.95 1.99 1.96 2.00 1.96 1.95 1.97 2.00 1.97 2.01 2.04 2.06 1.99 2.02 2.07 2.11 2.12 2.06 2.00 1.99 2.04 2.05 2.10 2.05 2.01 1.99 2.00 1.97 1.94 1.90 1.82 1.72 1.63 1.56 1.49 1.43 1.40 1.40 1.37 1.34 1.31 1.30 1.31 1.34 1.37 1.41 1.38 1.36 1.38 1.43 1.44 1.40 1.42 1.44 1.44 1.45 1.45 1.47 1.49 1.51 1.58 1.62 1.66 1.71 1.76 1.77
1.44 1.47 1.57 1.69 1.80 1.84 1.84 1.90 1.99 1.90 1.95 2.00 1.96 1.92 1.95 1.93 1.92 1.95 1.94 1.95 1.97 2.02 2.01 1.95 1.97 1.98 1.99 2.00 2.04 2.08 2.08 2.08 2.06 2.05 2.05 2.08 2.03 2.00 2.02 2.04 2.09 2.08 2.04 2.00 2.00 1.98 1.97 1.97 1.89 1.83 1.73 1.63 1.52 1.43 1.38 1.38 1.35 1.30 1.26 1.22 1.20 1.26 1.34 1.31 1.30 1.33 1.38 1.47 1.51 1.48 1.39 1.39 1.39 1.40 1.42 1.44 1.47 1.48 1.49 1.50 1.54 1.59 1.69 1.79 1.82
1.50 1.47 1.63 1.81 1.88 1.90 1.95 1.95 1.95 1.91 1.94 1.97 1.93 1.92 1.96 1.95 1.94 1.94 1.94 1.94 1.98 2.06 2.07 1.98 1.96 2.00 1.98 1.99 2.03 2.01 2.03 2.09 2.05 1.98 2.01 2.03 1.98 1.97 2.01 2.07 2.11 2.07 2.03 2.00 2.00 2.00 2.00 1.94 1.88 1.84 1.73 1.60 1.51 1.46 1.44 1.41 1.36 1.32 1.25 1.20 1.15 1.19 1.31 1.36 1.33 1.34 1.38 1.47 1.50 1.48 1.34 1.30 1.34 1.37 1.40 1.43 1.46 1.47 1.49 1.51 1.51 1.55 1.59 1.71 1.80
1.49 1.53 1.71 1.83 1.91 1.96 1.98 2.01 1.93 1.85 1.94 1.97 1.92 1.94 1.93 1.96 1.97 1.92 1.95 2.00 2.06 2.07 2.07 1.95 1.94 2.07 2.09 2.10 2.06 1.97 2.03 2.11 2.07 1.98 1.94 2.01 2.00 1.91 1.96 2.05 2.09 2.06 2.02 2.02 2.03 2.01 1.96 1.89 1.83 1.76 1.66 1.57 1.54 1.51 1.48 1.44 1.40 1.33 1.29 1.23 1.19 1.20 1.34 1.39 1.29 1.25 1.33 1.44 1.49 1.45 1.41 1.33 1.29 1.33 1.33 1.34 1.39 1.43 1.46 1.49 1.53 1.56 1.57 1.56 1.63
1.48 1.52 1.67 1.79 1.90 1.94 1.99 1.98 1.91 1.83 1.98 2.00 1.94 1.96 1.98 1.95 1.93 1.94 1.97 2.02 2.06 2.12 2.03 1.90 1.92 2.04 2.09 2.09 2.00 1.90 1.98 2.09 2.07 2.00 1.96 2.03 2.01 1.90 1.96 2.02 2.05 2.07 2.04 2.03 2.01 1.95 1.88 1.82 1.81 1.76 1.67 1.61 1.59 1.59 1.57 1.53 1.45 1.40 1.33 1.29 1.26 1.26 1.34 1.42 1.36 1.35 1.37 1.44 1.42 1.37 1.28 1.23 1.26 1.29 1.33 1.35 1.35 1.37 1.42 1.47 1.50 1.52 1.52 1.54 1.54
1.42 1.49 1.68 1.79 1.87 1.94 1.94 1.97 1.95 1.87 1.88 1.94 1.97 1.98 1.96 1.96 1.91 1.94 1.96 2.00 2.00 2.07 2.06 1.95 1.94 2.02 2.08 2.07 1.93 1.89 1.98 2.04 2.04 1.99 1.97 2.03 2.04 1.98 1.98 2.00 2.00 2.03 2.01 1.97 1.94 1.91 1.89 1.82 1.76 1.73 1.66 1.67 1.71 1.66 1.60 1.56 1.48 1.40 1.33 1.29 1.25 1.32 1.37 1.47 1.45 1.45 1.50 1.53 1.46 1.35 1.29 1.29 1.32 1.35 1.38 1.37 1.37 1.41 1.45 1.45 1.46 1.46 1.45 1.49 1.51
1.38 1.51 1.66 1.79 1.87 1.89 1.92 1.94 1.94 1.94 1.96 1.96 1.93 1.93 1.98 1.96 1.95 1.96 1.96 1.98 2.02 2.08 2.02 2.01 1.97 1.99 2.06 2.07 2.02 1.99 2.00 2.03 2.04 2.02 2.04 2.07 2.07 2.04 2.01 1.98 1.96 1.97 1.96 1.95 1.93 1.89 1.86 1.82 1.77 1.76 1.75 1.72 1.74 1.67 1.61 1.55 1.47 1.42 1.37 1.29 1.38 1.44 1.49 1.44 1.50 1.51 1.54 1.50 1.46 1.33 1.32 1.36 1.38 1.41 1.45 1.50 1.54 1.51 1.50 1.50 1.51 1.51 1.50 1.49 1.46
1.36 1.51 1.66 1.79 1.86 1.86 1.88 1.91 1.92 1.93 1.94 2.01 2.00 1.97 1.94 1.96 1.97 1.95 1.92 1.87 1.93 2.01 2.00 1.90 1.91 1.97 2.00 2.01 2.00 2.00 1.94 1.97 2.01 2.00 2.01 2.05 2.05 2.06 2.01 1.96 1.93 1.93 1.95 1.94 1.91 1.86 1.83 1.82 1.80 1.78 1.75 1.71 1.72 1.69 1.62 1.52 1.45 1.41 1.36 1.39 1.44 1.52 1.42 1.46 1.50 1.52 1.54 1.53 1.40 1.29 1.31 1.33 1.37 1.41 1.45 1.53 1.57 1.53 1.50 1.51 1.51 1.54 1.54 1.51 1.49
1.27 1.42 1.64 1.79 1.80 1.82 1.86 1.89 1.89 1.90 1.91 1.95 1.96 1.97 1.91 1.98 2.00 1.94 1.91 1.87 1.92 1.95 1.94 1.93 1.88 1.91 1.96 2.00 1.96 1.89 1.91 1.93 1.96 1.95 1.97 2.03 2.02 2.03 1.97 1.91 1.90 1.90 1.90 1.87 1.83 1.81 1.80 1.76 1.74 1.73 1.73 1.71 1.69 1.72 1.61 1.51 1.46 1.43 1.44 1.45 1.46 1.39 1.44 1.47 1.51 1.49 1.54 1.52 1.37 1.28 1.29 1.30 1.33 1.40 1.46 1.52 1.56 1.51 1.51 1.51 1.52 1.57 1.56 1.55 1.54
1.19 1.36 1.62 1.75 1.78 1.82 1.89 1.88 1.87 1.87 1.82 1.87 1.89 1.93 1.91 1.90 1.89 1.89 1.87 1.85 1.84 1.90 1.90 1.92 1.86 1.94 1.91 1.95 1.95 1.83 1.86 1.89 1.90 1.91 1.94 1.96 1.95 1.99 1.97 1.92 1.86 1.84 1.83 1.80 1.78 1.78 1.75 1.72 1.70 1.71 1.70 1.73 1.80 1.77 1.69 1.65 1.56 1.51 1.55 1.53 1.35 1.33 1.44 1.48 1.47 1.50 1.50 1.47 1.30 1.28 1.28 1.28 1.34 1.45 1.50 1.50 1.49 1.53 1.53 1.48 1.51 1.55 1.58 1.59 1.58
1.19 1.36 1.62 1.75 1.77 1.79 1.86 1.89 1.88 1.88 1.85 1.82 1.85 1.88 1.87 1.86 1.85 1.86 1.89 1.86 1.82 1.87 1.87 1.86 1.88 1.94 1.88 1.95 1.93 1.90 1.87 1.89 1.85 1.82 1.86 1.87 1.88 1.93 1.96 1.99 1.94 1.87 1.82 1.79 1.75 1.73 1.71 1.68 1.68 1.72 1.82 1.80 1.72 1.70 1.67 1.67 1.66 1.66 1.58 1.45 1.38 1.39 1.42 1.48 1.45 1.42 1.41 1.37 1.25 1.25 1.25 1.27 1.32 1.40 1.48 1.48 1.50 1.51 1.52 1.47 1.51 1.56 1.58 1.57 1.60
1.28 1.41 1.62 1.66 1.69 1.79 1.82 1.85 1.89 1.88 1.84 1.80 1.83 1.86 1.84 1.83 1.80 1.79 1.84 1.85 1.81 1.82 1.83 1.80 1.84 1.90 1.90 1.90 1.94 1.88 1.88 1.88 1.85 1.79 1.78 1.82 1.84 1.82 1.84 1.88 1.90 1.85 1.86 1.81 1.75 1.69 1.70 1.65 1.68 1.73 1.75 1.69 1.66 1.63 1.64 1.57 1.54 1.46 1.37 1.33 1.33 1.37 1.41 1.38 1.36 1.42 1.40 1.36 1.21 1.20 1.24 1.28 1.34 1.37 1.42 1.47 1.50 1.50 1.50 1.47 1.48 1.53 1.57 1.57 1.58
1.31 1.37 1.56 1.62 1.62 1.76 1.81 1.84 1.87 1.86 1.85 1.83 1.80 1.80 1.84 1.75 1.65 1.65 1.73 1.79 1.77 1.77 1.80 1.81 1.82 1.84 1.88 1.90 1.92 1.87 1.82 1.80 1.76 1.69 1.69 1.76 1.74 1.73 1.76 1.80 1.80 1.78 1.81 1.76 1.70 1.66 1.63 1.58 1.64 1.71 1.68 1.63 1.58 1.57 1.52 1.47 1.34 1.31 1.25 1.24 1.31 1.33 1.33 1.32 1.34 1.35 1.34 1.36 1.17 1.16 1.20 1.27 1.35 1.38 1.41 1.44 1.44 1.47 1.49 1.51 1.51 1.53 1.56 1.58 1.57
1.24 1.40 1.56 1.62 1.60 1.68 1.80 1.83 1.81 1.82 1.81 1.82 1.82 1.82 1.74 1.67 1.64 1.65 1.64 1.67 1.72 1.73 1.76 1.82 1.83 1.84 1.86 1.89 1.84 1.81 1.79 1.77 1.72 1.68 1.68 1.72 1.69 1.67 1.67 1.75 1.68 1.68 1.75 1.71 1.66 1.63 1.63 1.72 1.73 1.67 1.61 1.55 1.45 1.41 1.45 1.41 1.36 1.26 1.21 1.25 1.33 1.31 1.31 1.32 1.31 1.33 1.29 1.28 1.18 1.11 1.18 1.29 1.34 1.36 1.37 1.40 1.41 1.43 1.46 1.49 1.50 1.51 1.54 1.55 1.56
1.32 1.39 1.55 1.59 1.58 1.61 1.75 1.80 1.78 1.80 1.78 1.80 1.76 1.72 1.68 1.57 1.55 1.63 1.65 1.66 1.68 1.67 1.71 1.76 1.83 1.83 1.84 1.86 1.86 1.80 1.76 1.70 1.67 1.65 1.62 1.62 1.64 1.68 1.69 1.74 1.77 1.78 1.78 1.74 1.69 1.75 1.76 1.72 1.63 1.54 1.48 1.48 1.45 1.49 1.42 1.45 1.34 1.30 1.23 1.26 1.30 1.30 1.32 1.36 1.32 1.33 1.30 1.20 1.27 1.18 1.20 1.26 1.33 1.34 1.35 1.37 1.38 1.37 1.40 1.41 1.44 1.45 1.47 1.49 1.52
1.31 1.38 1.54 1.57 1.60 1.61 1.70 1.72 1.76 1.76 1.77 1.80 1.75 1.76 1.68 1.63 1.63 1.63 1.63 1.70 1.68 1.67 1.69 1.71 1.72 1.75 1.77 1.80 1.78 1.71 1.70 1.66 1.61 1.58 1.52 1.45 1.48 1.55 1.63 1.66 1.72 1.75 1.77 1.71 1.71 1.66 1.63 1.59 1.52 1.47 1.49 1.52 1.50 1.43 1.41 1.34 1.36 1.29 1.26 1.29 1.29 1.32 1.37 1.38 1.38 1.34 1.27 1.22 1.25 1.20 1.18 1.22 1.26 1.30 1.32 1.35 1.35 1.34 1.36 1.37 1.38 1.40 1.44 1.47 1.50
1.32 1.41 1.52 1.57 1.60 1.62 1.66 1.70 1.74 1.75 1.76 1.76 1.74 1.72 1.61 1.59 1.62 1.64 1.66 1.71 1.69 1.71 1.71 1.64 1.66 1.67 1.65 1.67 1.64 1.59 1.53 1.48 1.45 1.44 1.41 1.43 1.52 1.59 1.65 1.71 1.73 1.73 1.66 1.60 1.63 1.64 1.61 1.57 1.51 1.51 1.47 1.46 1.43 1.38 1.41 1.33 1.28 1.22 1.22 1.32 1.37 1.39 1.40 1.40 1.38 1.36 1.29 1.24 1.21 1.25 1.20 1.21 1.22 1.24 1.29 1.32 1.31 1.34 1.35 1.36 1.39 1.44 1.48 1.53 1.56
1.37 1.41 1.51 1.56 1.60 1.62 1.61 1.71 1.73 1.75 1.76 1.71 1.73 1.67 1.61 1.59 1.62 1.65 1.67 1.67 1.71 1.74 1.72 1.67 1.61 1.55 1.51 1.50 1.49 1.47 1.42 1.41 1.42 1.47 1.54 1.61 1.67 1.71 1.71 1.73 1.70 1.69 1.65 1.62 1.68 1.67 1.66 1.64 1.60 1.54 1.48 1.41 1.32 1.34 1.29 1.20 1.18 1.21 1.23 1.32 1.32 1.40 1.37 1.41 1.46 1.43 1.34 1.19 1.23 1.31 1.31 1.27 1.26 1.28 1.31 1.30 1.31 1.31 1.33 1.36 1.43 1.49 1.53 1.57 1.59
1.35 1.42 1.52 1.58 1.57 1.62 1.58 1.64 1.69 1.70 1.70 1.66 1.68 1.66 1.62 1.61 1.63 1.64 1.64 1.68 1.73 1.65 1.64 1.61 1.54 1.48 1.44 1.44 1.46 1.46 1.46 1.48 1.54 1.59 1.64 1.68 1.70 1.71 1.69 1.67 1.63 1.65 1.69 1.69 1.69 1.71 1.67 1.62 1.61 1.65 1.61 1.48 1.36 1.33 1.28 1.25 1.23 1.20 1.28 1.29 1.34 1.40 1.38 1.46 1.46 1.23 1.23 1.17 1.33 1.36 1.40 1.35 1.35 1.34 1.32 1.31 1.31 1.29 1.30 1.36 1.43 1.48 1.52 1.56 1.59
1.40 1.48 1.54 1.56 1.55 1.59 1.57 1.60 1.68 1.65 1.66 1.64 1.66 1.67 1.64 1.65 1.63 1.61 1.61 1.64 1.64 1.60 1.56 1.54 1.54 1.56 1.56 1.57 1.57 1.59 1.60 1.61 1.63 1.63 1.65 1.68 1.66 1.64 1.61 1.62 1.65 1.71 1.71 1.70 1.70 1.73 1.68 1.64 1.53 1.63 1.63 1.57 1.43 1.38 1.37 1.33 1.22 1.22 1.34 1.31 1.37 1.34 1.36 1.42 1.39 1.36 1.28 1.30 1.30 1.40 1.40 1.43 1.44 1.40 1.36 1.34 1.30 1.29 1.31 1.37 1.42 1.47 1.51 1.55 1.58
1.40 1.50 1.53 1.57 1.59 1.61 1.60 1.61 1.65 1.62 1.64 1.66 1.67 1.65 1.65 1.66 1.66 1.62 1.63 1.63 1.61 1.55 1.52 1.53 1.54 1.57 1.60 1.61 1.64 1.66 1.65 1.64 1.65 1.63 1.63 1.59 1.59 1.58 1.59 1.64 1.68 1.71 1.70 1.76 1.70 1.74 1.69 1.71 1.64 1.60 1.52 1.52 1.43 1.45 1.40 1.32 1.28 1.30 1.33 1.32 1.35 1.32 1.39 1.43 1.41 1.24 1.31 1.29 1.26 1.38 1.43 1.45 1.48 1.46 1.44 1.40 1.35 1.32 1.33 1.37 1.43 1.48 1.51 1.54 1.56
1.44 1.48 1.49 1.59 1.58 1.58 1.60 1.57 1.61 1.61 1.60 1.61 1.65 1.65 1.65 1.64 1.63 1.62 1.63 1.64 1.58 1.54 1.52 1.54 1.56 1.58 1.61 1.61 1.64 1.63 1.62 1.61 1.62 1.62 1.60 1.58 1.55 1.54 1.55 1.61 1.70 1.73 1.72 1.76 1.77 1.74 1.74 1.70 1.74 1.64 1.63 1.56 1.53 1.47 1.42 1.32 1.28 1.22 1.26 1.33 1.33 1.34 1.39 1.37 1.29 1.28 1.19 1.22 1.38 1.31 1.37 1.42 1.44 1.44 1.45 1.52 1.46 1.34 1.35 1.39 1.44 1.47 1.50 1.52 1.53
1.44 1.47 1.52 1.61 1.59 1.58 1.59 1.57 1.60 1.58 1.60 1.61 1.66 1.68 1.68 1.67 1.64 1.63 1.60 1.62 1.59 1.55 1.55 1.57 1.58 1.63 1.63 1.63 1.65 1.67 1.68 1.65 1.64 1.68 1.68 1.67 1.59 1.55 1.60 1.65 1.72 1.75 1.73 1.75 1.79 1.74 1.73 1.72 1.75 1.74 1.64 1.57 1.53 1.46 1.43 1.32 1.28 1.23 1.26 1.35 1.30 1.33 1.35 1.33 1.35 1.33 1.21 1.34 1.34 1.31 1.36 1.38 1.42 1.38 1.38 1.49 1.48 1.43 1.38 1.43 1.46 1.47 1.48 1.49 1.50
1.47 1.46 1.49 1.57 1.59 1.59 1.56 1.57 1.57 1.58 1.59 1.60 1.64 1.68 1.71 1.68 1.62 1.60 1.58 1.60 1.57 1.55 1.60 1.62 1.65 1.69 1.69 1.65 1.67 1.68 1.69 1.69 1.71 1.72 1.70 1.66 1.64 1.60 1.63 1.70 1.76 1.73 1.72 1.74 1.73 1.75 1.76 1.71 1.70 1.73 1.70 1.66 1.60 1.45 1.40 1.35 1.24 1.25 1.29 1.27 1.26 1.22 1.31 1.29 1.34 1.24 1.19 1.25 1.39 1.36 1.37 1.34 1.34 1.49 1.57 1.45 1.45 1.47 1.47 1.44 1.50 1.50 1.50 1.50 1.49
1.53 1.49 1.49 1.52 1.60 1.60 1.56 1.59 1.60 1.61 1.63 1.61 1.61 1.63 1.67 1.70 1.66 1.62 1.58 1.61 1.59 1.57 1.59 1.61 1.65 1.65 1.70 1.68 1.69 1.69 1.69 1.69 1.70 1.72 1.79 1.73 1.73 1.72 1.70 1.70 1.72 1.71 1.70 1.71 1.71 1.73 1.74 1.73 1.64 1.66 1.69 1.67 1.58 1.49 1.37 1.26 1.20 1.25 1.27 1.25 1.22 1.29 1.24 1.27 1.18 1.26 1.23 1.24 1.22 1.25 1.29 1.35 1.41 1.36 1.38 1.41 1.44 1.45 1.53 1.55 1.58 1.64 1.54 1.51 1.48
1.50 1.52 1.49 1.53 1.61 1.62 1.62 1.60 1.57 1.63 1.63 1.64 1.61 1.63 1.63 1.67 1.69 1.63 1.59 1.61 1.65 1.67 1.62 1.62 1.63 1.67 1.69 1.67 1.70 1.70 1.70 1.70 1.69 1.70 1.71 1.67 1.68 1.70 1.69 1.68 1.69 1.66 1.66 1.67 1.65 1.65 1.70 1.68 1.66 1.60 1.64 1.58 1.47 1.38 1.28 1.24 1.21 1.26 1.22 1.19 1.20 1.17 1.24 1.19 1.31 1.31 1.29 1.24 1.15 1.26 1.30 1.30 1.40 1.41 1.36 1.49 1.48 1.47 1.48 1.56 1.64 1.65 1.62 1.52 1.49
1.50 1.54 1.52 1.52 1.56 1.59 1.64 1.59 1.59 1.63 1.63 1.65 1.63 1.60 1.58 1.55 1.53 1.58 1.54 1.58 1.61 1.60 1.66 1.66 1.66 1.68 1.64 1.65 1.69 1.72 1.71 1.69 1.68 1.71 1.69 1.66 1.65 1.65 1.64 1.66 1.63 1.63 1.60 1.60 1.58 1.62 1.58 1.63 1.60 1.57 1.55 1.57 1.47 1.39 1.30 1.24 1.20 1.14 1.12 1.17 1.17 1.18 1.21 1.22 1.31 1.31 1.28 1.25 1.22 1.26 1.26 1.29 1.34 1.40 1.44 1.44 1.46 1.47 1.49 1.56 1.61 1.60 1.60 1.57 1.55
1.49 1.51 1.50 1.51 1.52 1.53 1.58 1.53 1.61 1.65 1.60 1.59 1.58 1.57 1.53 1.52 1.54 1.52 1.50 1.57 1.61 1.61 1.61 1.68 1.65 1.68 1.65 1.68 1.67 1.71 1.70 1.69 1.69 1.71 1.65 1.60 1.62 1.61 1.61 1.62 1.63 1.61 1.58 1.56 1.60 1.59 1.60 1.62 1.60 1.57 1.53 1.43 1.35 1.36 1.28 1.26 1.15 1.04 1.16 1.16 1.13 1.23 1.19 1.22 1.27 1.30 1.26 1.22 1.18 1.22 1.20 1.29 1.33 1.42 1.42 1.44 1.50 1.51 1.53 1.55 1.58 1.55 1.55 1.61 1.65
1.42 1.46 1.45 1.51 1.52 1.54 1.52 1.56 1.62 1.64 1.64 1.64 1.61 1.63 1.63 1.60 1.54 1.56 1.60 1.61 1.62 1.63 1.66 1.71 1.74 1.72 1.68 1.71 1.71 1.72 1.70 1.69 1.69 1.70 1.66 1.61 1.55 1.55 1.56 1.56 1.58 1.59 1.57 1.59 1.61 1.62 1.62 1.64 1.62 1.61 1.55 1.39 1.25 1.31 1.31 1.30 1.11 1.08 1.06 1.05 1.10 1.16 1.24 1.28 1.26 1.22 1.23 1.17 1.16 1.11 1.13 1.22 1.26 1.32 1.40 1.49 1.52 1.55 1.54 1.53 1.52 1.52 1.55 1.57 1.58
1.43 1.43 1.43 1.48 1.52 1.51 1.52 1.55 1.59 1.62 1.66 1.68 1.64 1.65 1.70 1.73 1.69 1.65 1.68 1.65 1.72 1.76 1.76 1.78 1.80 1.73 1.67 1.71 1.73 1.72 1.69 1.69 1.69 1.70 1.67 1.64 1.61 1.57 1.56 1.56 1.60 1.57 1.57 1.57 1.59 1.58 1.61 1.60 1.60 1.53 1.49 1.42 1.36 1.36 1.30 1.40 1.15 1.20 1.19 1.10 1.00 0.95 1.09 1.17 1.19 1.18 1.19 1.14 1.15 1.10 1.14 1.14 1.18 1.25 1.34 1.42 1.43 1.46 1.46 1.49 1.49 1.50 1.52 1.53 1.56
1.42 1.42 1.38 1.38 1.51 1.54 1.51 1.52 1.56 1.61 1.66 1.71 1.70 1.73 1.75 1.78 1.82 1.77 1.77 1.74 1.68 1.74 1.73 1.72 1.73 1.74 1.68 1.71 1.76 1.73 1.71 1.72 1.72 1.70 1.70 1.68 1.65 1.63 1.62 1.60 1.55 1.59 1.57 1.56 1.54 1.56 1.61 1.62 1.61 1.55 1.57 1.38 1.24 1.26 1.41 1.34 1.31 1.24 1.05 1.11 1.11 1.07 0.88 0.99 1.05 1.12 1.13 1.10 1.17 1.11 1.10 1.12 1.12 1.24 1.33 1.32 1.34 1.41 1.47 1.46 1.45 1.49 1.48 1.50 1.53
1.38 1.42 1.37 1.33 1.42 1.53 1.54 1.53 1.54 1.58 1.66 1.72 1.72 1.76 1.74 1.75 1.79 1.79 1.80 1.74 1.71 1.66 1.63 1.56 1.58 1.61 1.66 1.64 1.71 1.75 1.73 1.77 1.73 1.73 1.70 1.68 1.70 1.69 1.65 1.61 1.59 1.59 1.59 1.55 1.58 1.61 1.64 1.61 1.56 1.58 1.51 1.44 1.22 1.23 1.29 1.37 1.39 1.43 1.30 1.15 1.01 1.02 1.03 1.08 1.09 1.09 1.21 1.15 1.15 1.12 1.01 1.17 1.13 1.12 1.22 1.23 1.36 1.39 1.39 1.40 1.44 1.45 1.46 1.46 1.48
1.37 1.44 1.44 1.39 1.37 1.48 1.56 1.55 1.53 1.58 1.64 1.72 1.75 1.75 1.69 1.69 1.70 1.64 1.57 1.55 1.50 1.50 1.47 1.51 1.53 1.49 1.57 1.66 1.69 1.71 1.73 1.75 1.74 1.74 1.71 1.71 1.69 1.70 1.68 1.63 1.61 1.57 1.58 1.63 1.58 1.53 1.56 1.68 1.59 1.62 1.56 1.50 1.40 1.27 1.20 1.33 1.36 1.42 1.44 1.35 1.32 1.07 1.06 1.16 1.14 0.81 1.13 1.20 1.14 1.09 1.14 1.15 1.13 1.12 1.20 1.26 1.27 1.33 1.37 1.38 1.42 1.38 1.34 1.39 1.42
1.37 1.46 1.47 1.45 1.38 1.40 1.51 1.53 1.52 1.54 1.66 1.72 1.74 1.75 1.71 1.72 1.72 1.72 1.69 1.63 1.56 1.58 1.68 1.71 1.67 1.64 1.70 1.63 1.65 1.67 1.69 1.69 1.70 1.73 1.72 1.71 1.71 1.68 1.68 1.66 1.63 1.62 1.60 1.56 1.53 1.61 1.64 1.65 1.67 1.63 1.58 1.52 1.47 1.28 1.25 1.26 1.36 1.34 1.40 1.38 1.36 1.33 1.31 1.20 1.04 1.10 0.95 1.05 1.23 1.21 1.16 1.16 1.18 1.19 1.20 1.24 1.28 1.31 1.29 1.44 1.39 1.36 1.35 1.38 1.43
1.39 1.43 1.45 1.47 1.42 1.35 1.39 1.46 1.51 1.53 1.60 1.71 1.73 1.75 1.71 1.71 1.72 1.75 1.76 1.72 1.68 1.65 1.67 1.70 1.74 1.73 1.68 1.66 1.63 1.64 1.65 1.66 1.68 1.67 1.72 1.71 1.71 1.68 1.67 1.67 1.63 1.64 1.59 1.57 1.60 1.62 1.63 1.65 1.64 1.62 1.62 1.55 1.52 1.40 1.34 1.35 1.26 1.23 1.38 1.37 1.33 1.31 1.34 1.28 1.24 1.17 1.07 1.04 1.00 1.19 1.22 1.20 1.23 1.23 1.23 1.24 1.25 1.28 1.34 1.22 1.42 1.40 1.40 1.43 1.45
1.38 1.40 1.40 1.46 1.50 1.44 1.38 1.40 1.45 1.51 1.56 1.63 1.69 1.73 1.76 1.74 1.73 1.75 1.76 1.80 1.82 1.79 1.75 1.76 1.74 1.73 1.66 1.68 1.66 1.64 1.62 1.62 1.64 1.65 1.67 1.71 1.70 1.69 1.67 1.66 1.64 1.62 1.58 1.62 1.61 1.61 1.60 1.63 1.58 1.61 1.58 1.56 1.54 1.48 1.43 1.32 1.36 1.29 1.34 1.29 1.32 1.30 1.30 1.27 1.26 1.16 1.11 1.11 1.03 1.08 1.10 1.20 1.25 1.23 1.25 1.28 1.29 1.31 1.37 1.27 1.42 1.41 1.43 1.50 1.51
1.38 1.41 1.40 1.43 1.50 1.49 1.41 1.35 1.36 1.45 1.53 1.57 1.62 1.68 1.74 1.76 1.73 1.76 1.75 1.76 1.80 1.83 1.81 1.77 1.73 1.72 1.65 1.65 1.67 1.66 1.62 1.58 1.58 1.61 1.62 1.67 1.69 1.71 1.68 1.64 1.64 1.67 1.61 1.69 1.64 1.60 1.58 1.57 1.60 1.65 1.64 1.60 1.57 1.50 1.48 1.42 1.42 1.41 1.38 1.32 1.27 1.25 1.29 1.27 1.26 1.21 1.16 1.15 1.07 1.09 1.12 1.16 1.06 1.17 1.28 1.28 1.27 1.32 1.34 1.38 1.43 1.44 1.48 1.48 1.52
1.40 1.40 1.38 1.38 1.44 1.46 1.44 1.36 1.36 1.41 1.48 1.50 1.54 1.59 1.67 1.72 1.73 1.75 1.74 1.77 1.78 1.79 1.73 1.72 1.74 1.69 1.62 1.65 1.66 1.65 1.66 1.64 1.61 1.56 1.59 1.63 1.65 1.72 1.71 1.68 1.66 1.68 1.60 1.62 1.61 1.60 1.59 1.56 1.61 1.59 1.59 1.63 1.55 1.55 1.44 1.42 1.43 1.36 1.39 1.31 1.29 1.31 1.20 1.20 1.15 1.21 1.21 1.11 1.17 1.18 1.22 1.18 1.20 1.19 1.22 1.26 1.30 1.34 1.35 1.35 1.40 1.40 1.44 1.56 1.59
Wind_Speed
13 13 13 12 12 12 12 12 12 11 11 11 10 10 10 9 9 9 9 9 8 8 8 8 8 9 9 9 9 9 9 9 9 9 10 9 10 10 10 10 10 11 11 11 11 11 11 12 12 12 13 13 13 12 13 13 13 13 13 13 13 13 13 14 14 14 15 15 15 15 15 15 15 15 14 14 13 13 12 12 11 11 11 11 11
13 13 13 12 12 12 12 11 11 10 10 10 10 9 9 9 8 8 8 8 8 8 7 7 7 8 8 8 8 8 8 9 9 9 9 10 10 10 10 10 10 11 11 11 11 11 11 11 12 12 12 12 12 12 12 12 13 13 13 13 13 13 13 14 14 15 15 15 15 15 15 15 15 14 14 14 13 13 12 12 12 12 12 12 12
13 13 12 12 12 11 11 10 10 10 10 9 9 9 9 8 8 8 7 7 7 7 7 7 7 7 7 7 8 8 8 8 8 9 9 10 10 10 10 10 10 10 11 11 11 11 11 11 12 12 12 12 12 12 12 12 13 13 13 13 13 13 14 14 15 15 15 15 15 15 15 15 14 14 14 13 13 13 13 13 13 13 12 12 12
13 12 12 12 11 11 10 10 10 10 9 9 9 8 8 7 7 7 7 6 6 6 6 6 6 6 7 7 7 7 7 7 8 8 9 9 9 9 10 10 10 10 10 10 11 11 11 11 11 12 12 12 12 12 12 12 13 13 13 13 13 13 14 14 15 15 15 15 14 14 14 14 14 14 13 13 13 13 13 13 13 13 13 13 13
13 12 12 12 11 10 9 9 9 9 9 8 8 7 7 6 6 6 5 5 5 5 5 5 6 6 6 6 7 7 7 7 7 8 8 9 9 9 9 9 10 10 10 10 10 11 11 11 12 12 12 12 12 12 12 12 12 13 13 13 13 13 14 14 14 14 14 14 14 14 14 13 13 13 13 13 13 13 14 14 14 14 14 14 14
13 13 12 11 11 10 9 9 9 8 8 7 7 6 6 5 5 4 4 4 4 4 5 5 5 5 6 6 6 6 7 7 7 8 8 8 9 9 9 9 9 10 10 10 10 10 11 11 12 12 13 13 13 13 12 12 13 13 13 13 13 14 14 14 14 14 14 14 13 13 13 13 13 13 13 13 14 14 14 14 14 14 14 14 14
13 13 12 11 10 10 9 9 8 7 7 6 6 5 5 4 4 4 3 3 3 4 4 4 5 5 5 6 6 6 7 7 7 8 8 8 8 8 8 9 9 9 10 10 11 11 11 12 12 13 13 13 13 13 12 13 13 13 13 13 14 14 14 14 13 13 13 13 13 13 13 13 13 13 14 14 14 14 15 15 15 15 14 14 14
13 12 11 11 10 9 9 8 8 7 6 6 5 5 4 4 4 3 3 3 3 3 4 4 5 5 5 5 6 6 7 7 7 7 8 8 8 8 8 8 8 10 10 11 11 11 11 12 12 13 13 13 13 13 13 13 13 13 13 14 14 14 14 13 13 13 13 13 13 13 13 13 13 14 14 14 15 15 15 15 15 15 15 15 14
12 12 11 11 10 10 9 8 7 7 6 6 5 5 4 4 4 3 4 3 3 4 4 5 5 5 5 6 6 6 7 7 8 7 8 8 8 8 9 9 9 10 10 11 11 11 12 12 12 13 13 13 13 13 13 13 13 13 13 13 14 14 14 13 13 13 13 13 13 13 13 13 14 14 15 15 15 15 15 15 15 15 15 15 15
12 12 11 11 10 9 9 8 7 7 6 6 6 5 5 5 5 4 4 4 4 4 4 5 5 5 5 6 6 7 7 8 8 8 8 8 8 8 9 9 9 10 11 11 11 12 12 12 13 13 13 13 13 13 13 13 13 13 13 13 14 14 13 13 13 13 13 13 13 13 14 14 14 15 15 15 15 15 15 15 15 15 15 15 15
12 11 11 11 10 9 8 8 8 7 7 6 6 6 6 6 6 5 5 5 5 5 5 5 6 6 6 6 6 7 8 8 8 8 8 8 8 8 9 9 10 11 11 12 12 12 13 13 14 13 13 13 12 13 13 13 14 14 14 14 14 14 13 13 13 13 13 13 13 14 14 14 15 15 15 15 15 15 15 15 15 15 15 15 15
12 11 11 10 10 9 8 8 8 8 7 7 7 7 7 7 6 6 6 6 6 6 6 6 6 6 6 6 6 7 8 8 8 8 8 8 9 9 10 10 10 11 12 12 13 13 13 13 14 14 13 13 13 13 13 13 14 14 14 14 14 13 13 13 12 13 13 13 13 14 14 14 15 15 15 15 15 15 15 15 15 15 15 15 15
11 11 10 10 9 9 8 8 8 8 8 8 7 7 7 7 7 7 6 6 7 7 7 7 6 6 6 7 7 7 8 8 8 8 8 9 9 10 10 10 10 11 12 13 13 13 14 14 14 14 14 14 14 13 13 14 14 14 14 14 14 13 13 13 12 12 13 13 13 14 14 15 15 15 15 15 15 15 15 15 15 15 15 15 15
11 10 10 9 9 9 8 8 8 9 8 8 8 8 8 8 8 7 7 7 7 7 7 7 7 7 7 7 8 8 8 8 9 9 9 10 10 10 11 11 11 12 12 13 14 14 14 14 14 14 14 14 14 14 14 14 14 14 14 14 13 13 13 13 12 12 13 13 13 14 14 14 15 15 14 15 15 15 15 15 15 15 15 15 15
11 10 10 9 9 9 9 9 9 9 9 9 8 9 9 8 8 8 8 8 8 8 8 8 8 8 8 8 9 9 9 9 10 10 10 11 11 11 11 12 12 12 13 14 14 15 15 15 15 15 15 15 14 14 14 14 14 14 14 14 13 13 12 12 12 12 13 13 14 14 14 14 14 14 14 14 14 15 15 15 15 15 15 15 15
10 10 9 9 9 9 9 9 10 10 9 9 9 9 9 9 9 9 8 8 8 9 9 9 8 8 9 9 10 10 10 10 11 11 11 11 12 12 12 12 12 13 14 14 15 16 16 16 16 15 15 15 15 15 15 15 15 14 14 14 13 13 12 12 13 13 12 13 14 14 14 14 14 14 14 14 14 14 14 14 14 15 15 14 15
10 10 9 9 9 9 9 10 10 10 9 9 10 10 10 10 10 10 9 9 9 10 10 10 9 9 9 10 11 11 11 11 12 12 12 12 12 13 13 13 14 14 15 15 16 17 17 17 16 16 15 15 15 15 15 15 15 15 14 14 13 13 12 12 13 13 13 13 13 13 14 14 14 14 14 14 14 14 14 14 14 14 14 14 14
10 9 9 9 9 9 9 9 10 10 10 10 10 10 11 11 10 10 10 10 10 11 12 12 11 10 11 12 12 13 13 12 13 13 13 13 14 14 14 14 14 15 16 16 17 17 17 17 16 16 16 16 15 15 15 15 15 15 14 14 13 13 12 12 13 13 13 13 13 13 13 14 14 14 14 14 14 14 14 14 14 14 14 14 14
10 9 9 9 9 9 9 9 10 10 10 10 10 11 11 11 11 11 11 11 12 13 14 14 13 12 12 13 14 14 14 13 14 14 14 14 15 15 16 16 16 16 17 17 18 18 18 17 17 16 16 16 15 15 15 15 15 14 14 13 13 12 12 12 12 13 13 13 13 13 13 13 13 13 13 13 14 14 14 13 13 14 14 14 14
10 9 9 9 9 9 9 9 10 10 10 10 11 11 11 11 12 12 12 12 12 14 15 15 15 14 14 15 15 15 14 15 15 15 15 15 16 17 18 18 18 18 18 18 18 18 18 17 17 16 16 15 15 15 15 15 14 14 13 13 12 12 12 12 12 12 12 12 13 13 13 13 13 13 13 13 13 13 13 13 13 14 14 14 14
9 9 9 9 9 9 9 9 10 10 10 11 11 11 11 12 12 12 12 12 13 14 15 16 16 16 16 17 17 17 16 16 16 17 17 17 18 19 20 19 19 19 18 18 18 18 18 17 17 16 16 15 15 15 15 14 14 13 12 12 11 11 12 12 12 12 12 12 13 13 13 13 12 12 12 13 13 13 13 13 14 14 14 14 14
9 9 9 9 9 9 9 10 10 10 10 11 11 11 11 12 12 13 13 13 13 14 15 16 17 17 17 17 18 18 18 18 18 18 19 19 20 20 20 20 19 19 18 18 18 18 17 17 17 16 16 15 15 14 14 14 13 12 12 11 11 11 11 12 11 12 12 12 12 12 12 12 12 12 12 12 12 13 13 14 14 14 14 14 15
9 9 9 9 9 9 10 10 10 10 11 11 11 11 11 11 12 12 13 13 13 14 14 15 16 16 16 17 19 19 19 18 18 19 20 20 20 20 20 20 19 19 18 18 18 17 17 17 16 16 16 15 14 13 13 12 12 11 11 11 11 11 11 11 11 11 11 12 12 12 12 12 12 12 12 12 12 13 13 14 14 14 15 15 15
9 9 9 9 9 9 10 10 10 10 11 11 11 11 11 11 12 12 12 13 14 14 14 15 15 15 16 17 19 20 19 19 19 20 20 20 20 20 20 19 19 18 18 18 17 17 16 16 16 15 14 14 13 13 12 11 10 10 10 10 11 11 11 11 11 11 11 12 12 12 12 11 12 12 12 12 12 13 13 14 14 15 15 15 15
9 9 9 9 9 9 10 10 10 10 11 11 11 11 11 11 12 12 12 13 14 14 14 15 15 15 16 17 18 19 19 18 18 19 19 19 19 19 18 18 18 17 17 17 17 16 15 15 15 14 14 13 13 12 11 11 10 10 10 10 11 11 11 11 11 11 11 11 11 11 11 11 11 12 12 12 12 13 13 14 15 15 15 15 15
9 9 9 9 9 9 10 10 10 11 11 11 11 11 11 11 12 12 12 13 14 14 14 15 15 15 16 17 17 17 18 18 18 18 18 19 18 18 18 17 17 17 17 17 16 16 15 15 14 14 13 13 12 12 11 11 11 11 11 11 11 11 11 11 11 11 11 11 11 11 11 11 11 11 12 12 12 13 13 14 15 15 16 16 16
9 9 9 9 9 9 10 10 11 11 11 11 11 11 11 11 12 12 13 13 13 14 14 14 15 15 15 16 16 16 17 17 17 17 18 18 17 17 17 17 17 17 17 16 16 15 15 14 14 13 13 12 12 12 11 11 11 11 11 11 11 11 11 11 11 11 11 11 11 11 11 11 11 11 12 12 12 13 13 14 15 15 16 16 16
9 10 9 9 9 9 10 10 11 11 11 11 11 11 11 12 12 12 13 13 13 13 14 14 14 14 15 15 15 15 16 16 17 17 17 16 16 16 16 16 16 16 16 15 15 14 14 13 13 13 12 12 11 11 11 11 11 11 11 11 11 11 11 11 11 11 11 11 11 11 11 11 11 11 12 12 12 13 14 14 15 15 16 16 17
10 10 9 9 9 10 10 10 11 11 11 11 11 11 12 12 12 13 13 13 13 13 13 13 14 14 14 14 15 15 16 16 16 16 16 16 16 16 16 15 15 15 15 14 14 14 13 13 13 12 12 11 11 11 10 10 10 10 10 10 10 11 11 11 11 11 10 11 11 11 11 11 11 11 12 12 13 13 14 14 15 15 16 17 17
10 10 10 10 10 10 10 10 11 11 11 11 11 12 12 12 12 13 13 13 13 13 13 13 13 14 14 14 15 15 15 16 16 16 16 16 16 16 15 15 15 14 14 14 14 14 13 13 12 12 11 11 10 10 9 9 10 10 10 10 10 10 10 10 10 10 10 10 11 11 11 11 11 11 11 12 12 13 14 14 15 15 16 17 17
10 10 10 10 10 10 10 10 11 11 11 11 11 12 12 12 12 12 13 13 13 13 13 13 14 14 14 15 15 15 15 16 16 16 16 16 16 15 15 15 14 14 14 14 14 14 13 12 11 11 10 10 10 9 9 9 9 9 9 9 10 10 10 10 10 10 10 10 10 11 11 11 11 11 11 12 12 13 13 14 15 15 16 16 17
11 10 10 10 10 10 10 11 11 11 11 11 12 12 12 12 12 12 12 13 13 13 14 14 15 15 15 15 15 15 15 16 16 16 16 15 15 15 15 14 14 14 14 14 14 13 12 11 11 10 10 9 9 9 8 8 8 8 9 9 9 10 9 9 9 10 10 10 10 10 10 10 10 11 11 11 12 12 13 14 14 14 15 16 17
11 11 10 10 10 10 10 10 11 11 11 11 11 11 12 12 12 12 12 13 13 14 14 15 15 15 15 14 14 15 15 15 15 15 15 15 15 15 14 14 14 14 14 14 13 12 11 11 10 10 9 9 8 8 8 8 8 8 8 9 9 9 9 9 9 9 9 9 10 9 9 9 10 10 10 11 11 12 13 13 13 14 15 15 16
11 11 11 11 10 10 10 10 11 11 11 11 11 11 11 11 12 12 12 13 13 14 14 15 15 15 15 14 14 14 15 15 15 15 15 15 15 15 15 14 14 14 13 13 12 11 11 10 9 9 9 8 8 7 7 7 7 7 8 8 9 9 8 8 9 9 9 9 9 9 8 9 9 9 9 10 11 12 12 13 13 14 15 15 16
11 11 11 11 10 10 10 10 11 11 11 11 11 11 12 12 12 12 12 13 13 13 14 14 14 15 15 14 14 14 15 15 15 15 15 15 15 14 14 14 13 13 12 11 11 11 10 9 9 8 8 8 7 7 6 6 7 8 8 8 9 8 8 8 8 9 9 9 9 8 8 8 8 9 9 9 10 11 12 12 13 14 14 15 16
11 11 11 11 11 10 10 10 11 11 11 11 11 11 12 12 12 12 12 13 13 13 13 13 13 14 14 14 14 14 15 15 14 14 14 14 14 13 13 13 12 11 11 10 10 9 9 9 8 7 7 7 7 6 6 6 7 8 8 8 9 8 8 8 8 8 8 8 8 8 8 8 8 8 9 9 9 10 11 12 12 13 14 15 16
11 11 11 11 11 11 10 11 11 11 11 11 11 11 11 11 12 12 12 12 12 12 12 12 12 12 13 13 13 14 14 14 14 13 13 13 12 12 12 11 10 10 10 9 9 8 8 7 7 7 7 6 6 6 6 6 7 8 8 8 8 8 8 8 8 8 8 8 8 8 7 7 7 8 8 8 8 9 10 11 11 12 13 14 15
11 11 11 11 11 11 11 11 11 10 10 11 11 11 11 11 11 11 12 12 11 11 12 12 12 11 12 12 12 13 13 13 13 12 12 12 11 11 10 10 9 9 8 8 8 7 7 6 6 6 6 6 6 6 6 6 7 8 8 9 9 8 8 7 7 7 7 7 8 8 7 7 7 7 7 7 8 8 9 9 10 11 12 14 15
12 12 12 11 11 11 11 10 10 10 10 10 10 10 10 11 11 11 11 11 11 11 11 11 11 11 11 11 11 11 11 11 11 11 11 10 10 10 9 9 8 8 7 7 7 6 6 6 6 6 6 6 6 6 6 6 7 8 8 9 9 8 7 7 7 7 7 7 8 7 7 7 7 7 7 7 7 8 8 9 9 10 11 13 14
12 12 12 12 11 11 11 11 10 10 10 10 10 10 10 10 10 10 10 10 10 10 10 10 10 10 11 11 11 10 10 10 10 10 9 9 9 8 8 8 7 7 7 6 6 6 5 5 5 5 5 5 6 6 6 7 8 8 9 9 9 8 7 6 6 6 7 7 8 7 7 7 6 6 6 7 7 7 8 8 9 9 10 11 13
13 13 12 12 12 11 11 11 11 10 10 10 10 10 10 10 10 10 10 10 10 10 10 9 10 10 10 10 10 10 10 10 9 9 8 8 8 8 7 7 7 7 6 6 6 5 5 5 4 4 5 5 6 6 7 7 8 9 9 9 9 8 7 6 6 6 7 8 8 8 7 6 6 6 6 7 7 7 7 8 8 8 9 10 11
13 13 13 12 12 12 11 11 11 11 10 10 10 10 10 10 10 10 9 9 9 9 9 9 9 9 10 9 9 9 9 9 9 8 8 8 7 7 7 7 6 6 6 6 5 5 5 5 4 4 5 6 6 7 7 7 8 9 9 9 9 8 7 6 6 7 7 8 8 8 7 6 6 6 6 6 6 6 6 7 7 8 9 9 10
14 14 13 13 12 12 12 11 11 11 11 10 10 10 10 10 9 9 9 9 9 9 9 9 9 9 9 9 9 9 9 8 8 8 7 7 7 7 7 6 6 6 6 6 6 5 5 5 5 5 5 6 7 7 7 7 8 8 8 8 8 8 7 7 7 7 8 8 8 7 7 6 6 5 5 5 5 5 5 6 6 7 8 8 9
14 14 14 13 13 12 12 12 12 11 11 11 10 10 10 10 9 9 9 9 9 9 9 9 9 8 9 9 8 8 8 8 8 7 7 7 6 6 6 6 6 6 6 6 6 5 5 5 5 5 5 6 7 8 7 8 8 8 7 7 7 7 7 7 7 7 8 8 7 7 6 5 5 5 4 4 4 4 4 5 6 6 7 8 8
14 14 14 14 13 13 12 12 12 12 11 11 11 10 10 10 9 9 9 9 8 9 8 8 8 8 8 8 8 8 8 8 7 7 7 6 6 6 6 6 5 5 5 5 5 5 5 5 5 6 6 6 7 7 7 7 8 8 7 6 7 7 6 7 7 7 7 7 7 6 5 5 5 4 3 3 3 3 4 4 5 6 6 7 7
14 14 14 14 14 13 13 13 12 12 12 11 11 10 10 10 9 9 9 9 9 8 8 8 8 8 8 8 8 8 8 7 7 7 7 6 6 6 5 5 5 5 5 5 5 5 5 5 5 5 5 6 6 6 7 7 7 7 7 6 6 6 5 5 6 7 6 6 6 6 5 4 4 4 3 2 2 2 3 4 4 5 6 6 7
15 15 14 14 14 14 14 13 13 12 12 12 12 11 10 10 10 9 9 9 9 8 8 8 8 7 7 7 7 7 7 7 7 7 6 6 6 6 5 5 5 5 5 5 5 5 5 5 5 5 5 5 5 5 6 6 6 6 6 6 6 6 5 5 5 6 6 5 5 5 4 4 4 3 2 2 1 1 2 3 4 4 5 6 6
15 15 15 14 15 14 14 14 13 13 12 12 12 11 11 10 10 9 9 9 8 8 8 8 7 7 7 7 7 7 7 7 6 6 6 6 6 6 5 5 5 5 5 5 5 5 5 5 5 5 5 4 5 5 5 5 5 5 5 5 5 5 5 5 5 5 5 5 5 4 4 4 3 2 1 1 1 1 1 2 3 4 4 5 5
16 15 15 15 15 15 15 15 14 13 13 12 12 12 11 11 10 10 9 8 8 8 8 8 7 7 7 7 7 7 7 7 7 6 6 6 6 5 5 5 5 5 5 5 5 5 5 5 5 5 5 4 4 5 5 5 5 5 5 4 4 4 4 4 4 4 4 4 4 4 4 3 2 1 1 0 1 1 1 2 2 3 3 4 5
16 16 16 15 15 15 15 15 15 14 13 13 13 12 12 11 10 10 9 8 8 8 8 8 7 7 7 7 7 7 7 7 7 7 6 6 6 5 5 5 5 5 5 5 5 5 5 5 5 5 5 4 4 4 4 5 5 5 5 4 4 4 4 4 4 4 4 3 3 3 3 3 2 2 1 1 1 2 2 2 2 3 3 4 4
17 16 16 16 15 15 15 16 15 14 14 13 13 13 12 12 11 10 10 9 8 8 8 8 7 7 7 7 7 7 7 7 7 7 7 6 6 6 5 5 5 5 5 5 5 5 5 5 5 5 4 4 4 4 4 4 4 4 4 5 4 4 4 3 3 3 3 3 3 3 3 2 2 2 1 2 2 2 2 3 3 3 4 4 4
Wind_Direction
128 125 123 121 118 120 119 117 115 114 113 113 113 113 114 114 115 115 116 116 116 116 117 116 114 114 114 114 111 112 113 112 113 115 116 115 113 112 112 109 107 106 108 110 110 108 105 104 104 104 105 105 104 104 101 99 98 98 97 94 92 90 89 88 87 86 86 86 86 85 84 83 81 80 79 76 74 71 70 68 67 65 64 64 63
128 126 124 124 121 121 119 117 116 115 114 114 113 113 113 114 115 116 117 117 118 119 119 120 120 119 118 117 115 115 116 116 117 118 119 118 115 114 114 111 109 107 108 110 110 109 107 106 106 106 107 107 107 105 103 100 99 98 97 95 93 92 90 90 89 88 88 88 86 85 83 82 80 78 76 74 71 69 67 66 65 65 65 65 64
126 125 124 125 122 120 117 116 116 116 115 115 114 114 114 114 116 117 118 119 120 121 123 124 124 124 123 124 123 121 121 122 123 122 123 121 118 117 115 114 112 110 111 112 111 110 109 109 108 108 109 109 109 106 104 102 99 98 97 96 95 94 92 91 92 91 90 88 86 84 82 80 78 76 74 72 70 67 65 65 65 67 67 65 63
125 124 124 125 123 120 117 116 116 115 115 114 114 114 114 115 116 118 121 123 124 126 128 128 128 128 128 129 129 129 131 131 129 129 128 124 121 119 118 117 115 114 114 114 113 112 111 111 111 111 112 111 110 107 104 103 100 99 98 97 96 95 93 93 93 92 90 88 86 83 80 77 75 74 73 70 67 65 65 65 66 67 66 65 64
123 123 124 124 123 121 118 117 116 113 113 112 113 113 114 115 116 119 124 128 131 134 135 134 134 134 133 133 132 134 139 139 137 136 133 129 125 123 122 120 119 118 118 117 115 113 112 112 113 114 114 113 110 108 106 104 101 100 99 98 97 96 95 96 95 92 89 87 84 81 78 75 73 71 71 69 67 66 66 67 67 67 67 66 65
122 122 123 123 121 120 118 116 113 112 112 112 112 111 111 113 116 120 127 134 139 143 144 143 144 143 141 139 138 139 143 143 143 143 138 134 130 127 125 122 121 121 121 121 118 115 113 112 114 115 115 113 111 109 106 104 102 101 100 99 98 98 98 97 95 92 89 87 82 79 76 74 71 70 69 70 69 69 69 70 69 68 67 67 65
120 121 121 120 118 119 117 114 112 111 110 109 108 107 108 109 114 120 128 137 144 151 152 152 152 151 151 148 147 147 146 144 146 147 144 139 134 130 127 124 123 123 124 123 120 118 116 114 115 116 115 113 111 108 106 105 103 102 100 100 100 100 100 98 95 91 89 86 82 78 75 73 71 71 71 72 72 73 73 72 70 69 67 66 64
119 119 119 118 117 117 115 112 110 108 106 105 105 105 106 108 112 118 126 135 144 153 157 158 154 153 157 157 155 152 148 146 149 151 148 144 140 135 129 128 129 128 128 125 122 121 119 119 117 116 116 114 111 109 108 106 104 102 101 101 102 102 100 98 95 91 87 84 81 78 75 73 73 74 74 75 76 75 75 73 71 69 68 66 64
119 117 117 116 115 114 111 109 108 106 104 102 102 102 101 103 107 112 116 124 135 148 155 157 155 153 159 160 160 156 152 152 153 153 151 148 144 140 135 134 134 132 131 128 126 123 121 122 120 118 117 115 112 110 109 107 105 104 103 103 103 102 101 98 95 90 87 83 80 77 75 74 75 77 77 78 77 76 74 73 71 69 68 66 64
118 116 115 114 113 111 108 106 104 101 99 97 97 97 97 99 102 106 107 113 122 130 139 145 149 152 154 155 158 159 158 159 156 155 154 151 145 139 137 137 137 136 133 131 129 125 124 122 121 120 118 117 114 112 110 107 106 105 105 105 104 103 101 98 95 91 87 83 80 77 75 76 78 80 80 80 78 75 73 71 70 69 68 66 64
118 115 113 112 111 108 104 101 98 95 94 95 95 95 95 96 98 99 100 105 111 116 123 131 140 148 151 152 154 157 161 161 159 157 154 150 146 139 138 138 138 138 134 132 130 127 125 122 120 120 118 117 116 113 111 108 106 106 106 105 105 104 101 97 94 91 87 83 80 78 77 79 82 83 83 80 77 75 72 71 70 69 67 66 64
117 114 111 109 108 104 101 98 95 93 93 94 94 94 93 93 95 96 97 100 106 111 115 122 131 141 147 148 149 153 157 157 158 156 150 146 144 142 141 139 140 138 133 132 131 129 127 122 120 119 117 117 115 113 111 109 107 107 106 105 105 103 99 96 94 91 87 84 81 80 81 83 85 85 83 80 77 74 72 71 69 68 66 64 61
117 113 110 107 104 102 99 97 95 93 93 93 94 94 92 91 93 95 97 99 104 108 111 116 123 131 137 142 146 150 152 153 156 154 147 143 142 144 143 139 140 136 132 132 131 130 127 123 120 118 117 116 114 113 111 109 109 108 106 105 103 101 98 95 93 90 87 84 82 82 84 85 87 86 83 80 77 74 72 70 68 65 62 60 58
118 112 109 106 103 102 99 97 95 94 93 92 93 92 91 91 91 93 95 99 102 106 108 111 116 123 128 133 139 141 143 147 150 148 144 141 142 144 141 139 138 134 130 131 131 130 127 123 121 119 117 115 113 112 111 110 109 108 106 104 102 100 97 94 92 91 88 86 85 86 87 88 88 86 83 80 77 74 72 69 65 61 59 57 55
117 113 110 107 104 102 99 97 94 94 92 91 91 91 92 90 90 91 93 96 99 103 105 107 112 116 121 127 131 132 135 140 141 141 141 139 140 140 137 137 135 131 129 129 130 129 127 124 121 120 117 115 113 112 111 109 108 107 106 104 102 99 97 95 94 92 90 88 89 89 89 89 89 86 83 80 77 74 71 67 63 59 57 55 53
117 114 110 107 104 102 99 97 95 94 91 89 90 91 91 90 89 89 91 93 96 100 101 103 108 112 116 122 126 128 131 135 136 137 139 138 137 136 135 134 132 129 129 128 129 128 126 124 121 120 118 115 114 112 110 109 108 107 106 104 101 99 97 96 94 92 90 90 91 91 90 90 88 86 83 80 77 73 69 65 61 58 56 54 52
117 115 110 106 104 101 99 97 96 95 92 90 90 91 91 90 89 88 89 91 93 94 96 99 104 109 113 116 120 124 127 128 130 131 133 134 132 133 134 133 130 128 128 127 128 127 126 124 121 120 118 116 113 111 110 108 107 106 105 103 100 98 98 97 94 92 91 92 92 91 91 91 89 85 82 79 76 72 68 64 60 58 56 53 51
117 115 110 106 104 101 99 97 97 96 94 92 91 92 91 90 89 88 89 89 90 91 93 96 101 107 110 112 115 121 123 124 126 126 128 130 129 130 133 132 130 128 127 126 126 126 125 124 121 119 118 116 113 111 110 108 107 106 105 102 100 99 99 97 95 93 93 94 94 93 93 91 89 85 81 78 74 70 66 63 60 57 55 52 49
116 114 109 106 104 102 100 98 97 98 96 95 95 94 92 91 89 88 88 87 88 89 92 94 99 104 106 108 111 117 120 121 122 123 124 127 127 127 129 129 129 128 126 125 125 125 124 123 121 119 118 116 113 111 110 108 106 105 104 102 102 101 100 98 96 94 93 95 94 94 94 92 89 85 81 77 72 68 65 62 59 56 53 50 47
115 112 107 105 103 102 101 99 99 98 97 96 97 95 94 94 92 89 87 86 86 88 90 92 97 101 103 104 107 112 116 117 118 118 120 123 125 124 124 126 126 126 126 125 125 124 124 123 122 120 118 115 113 111 109 107 106 105 104 103 103 102 100 98 95 93 95 96 95 95 94 92 89 85 81 76 71 67 63 60 58 54 51 48 45
115 111 106 105 103 102 101 101 100 99 99 99 97 96 96 96 93 90 88 86 86 87 90 92 95 98 100 101 103 108 111 113 113 114 115 118 121 121 121 122 123 124 125 125 124 123 123 122 120 119 117 115 114 111 109 107 106 105 104 103 103 103 101 98 95 94 96 97 96 95 94 91 88 84 80 75 70 65 62 58 55 51 49 46 44
115 111 107 106 103 102 102 102 100 100 101 101 99 96 95 94 93 91 89 88 87 88 90 93 96 98 99 100 102 105 108 109 111 113 114 115 117 118 118 119 120 122 123 123 123 122 121 120 119 118 117 116 115 112 109 107 106 105 104 103 103 103 101 98 95 96 98 97 96 95 94 90 87 83 79 74 69 64 60 56 52 50 47 45 44
116 111 109 107 105 103 102 103 102 101 102 102 101 98 95 94 94 93 91 89 89 90 90 92 96 98 100 101 102 105 107 107 110 113 114 115 116 118 118 119 120 120 121 121 121 120 120 119 118 117 116 115 115 113 110 109 107 105 104 104 104 103 101 98 96 97 99 99 97 96 94 90 87 83 78 73 68 63 59 54 51 50 47 46 45
116 112 111 109 107 106 104 104 103 102 103 103 103 100 98 97 97 95 93 92 92 92 92 93 96 98 100 101 103 105 106 107 109 113 115 115 116 118 119 118 119 119 120 120 120 119 119 118 117 117 116 115 115 113 110 109 107 106 105 106 106 104 102 99 98 100 101 100 98 97 94 90 86 82 77 72 67 62 58 54 52 50 49 47 46
117 113 112 110 109 107 106 106 105 104 104 105 104 101 100 99 98 97 95 96 95 95 95 95 96 99 101 102 103 104 105 107 109 112 115 116 117 118 118 118 118 119 120 120 119 119 118 118 116 116 116 115 114 111 108 107 106 107 108 109 107 104 103 100 100 102 104 102 99 98 95 90 86 81 76 71 66 62 59 56 54 52 51 49 47
120 116 114 111 111 109 107 108 107 107 106 106 104 102 101 100 99 98 98 99 98 99 98 97 98 100 102 103 104 105 106 108 109 112 114 116 116 116 117 117 117 118 119 119 119 119 118 117 115 116 116 115 112 109 108 107 107 107 109 110 108 105 104 102 101 104 105 104 101 99 95 90 86 81 76 71 65 62 60 58 56 53 51 49 48
122 120 117 112 112 111 109 110 109 110 109 107 105 103 102 102 101 101 100 100 100 101 100 100 101 102 103 105 106 107 108 110 111 112 114 115 115 115 116 117 117 117 117 118 119 118 117 116 115 116 117 114 111 109 107 107 108 108 109 109 107 106 105 103 103 105 106 105 103 100 96 91 86 81 75 70 66 64 62 60 57 54 52 50 48
125 123 120 115 114 114 113 112 112 112 111 109 107 105 104 104 104 103 102 101 101 102 102 103 103 104 105 106 108 110 111 112 113 114 115 115 115 116 116 117 117 116 116 117 117 116 115 115 115 116 116 114 111 110 109 109 109 110 111 110 108 107 106 105 103 105 107 106 104 100 96 92 86 81 75 70 67 65 64 61 59 56 54 52 50
129 127 122 118 117 116 116 115 114 114 113 111 108 107 107 107 106 105 104 102 102 103 104 105 105 106 107 107 109 111 112 113 114 115 116 116 116 117 117 117 116 115 115 115 115 115 114 114 115 115 114 112 111 111 111 111 111 111 113 112 111 109 107 106 104 106 108 107 106 101 96 93 87 81 75 71 68 66 64 62 60 57 55 53 51
133 131 125 121 120 119 118 117 116 116 114 112 109 108 109 109 108 107 106 104 103 104 105 106 106 107 108 108 110 112 113 113 114 115 115 116 116 116 116 116 115 115 116 115 115 115 115 114 113 112 111 111 111 111 112 112 111 113 114 115 115 112 110 109 107 108 109 108 108 104 98 94 88 82 77 73 70 67 65 63 61 58 55 53 51
136 134 128 124 123 121 120 119 117 117 116 114 112 110 111 110 109 109 108 106 105 105 105 106 108 108 109 109 111 112 114 115 115 115 115 115 115 115 116 116 116 116 117 116 116 115 115 113 111 111 110 109 110 111 112 111 112 115 117 118 117 116 113 112 111 111 111 110 109 106 101 95 90 83 79 75 72 69 66 65 62 59 56 53 50
140 137 132 127 126 124 122 121 119 119 118 117 115 113 113 112 111 110 109 109 107 106 106 108 110 110 110 110 110 112 114 115 115 116 115 115 116 116 117 117 117 117 117 116 115 114 113 111 109 109 108 108 109 110 111 112 114 118 121 121 120 118 115 113 113 113 114 114 112 108 102 97 91 85 80 77 73 70 68 66 63 59 55 53 50
143 140 136 131 129 127 125 124 122 121 120 118 117 115 115 114 113 112 112 112 110 108 109 110 112 111 111 111 112 113 115 116 117 117 117 117 117 117 117 116 116 116 116 115 114 113 111 109 108 107 106 107 108 108 112 114 116 122 124 124 122 121 119 117 115 115 118 119 115 110 104 97 92 88 84 79 74 71 69 66 63 59 55 52 49
146 143 140 136 132 130 128 127 125 123 122 120 119 118 117 116 115 115 114 114 113 112 112 113 112 112 111 112 113 114 116 118 118 118 118 118 117 117 117 116 116 116 115 114 112 110 108 107 106 106 105 105 107 107 110 114 119 125 125 125 125 123 122 119 117 118 119 122 119 113 107 99 93 89 86 82 77 73 70 67 63 59 55 51 47
149 147 144 141 137 134 131 130 129 126 124 123 121 120 119 118 117 117 117 116 115 115 115 115 113 112 112 113 114 115 116 117 118 118 118 118 118 118 117 117 117 116 114 112 110 108 105 103 101 103 104 105 106 108 110 114 122 127 126 127 127 126 124 120 120 122 122 124 122 116 110 103 96 90 87 84 80 75 71 67 63 59 54 50 46
151 150 148 145 142 139 136 134 132 129 127 126 124 122 121 119 119 120 121 119 118 118 118 117 115 114 114 115 116 116 116 117 117 117 117 117 118 118 118 119 118 116 114 111 108 106 103 101 98 97 101 104 105 109 114 119 125 129 130 131 129 128 128 123 123 124 124 126 126 121 114 106 99 92 88 84 80 78 73 67 63 59 54 50 47
154 153 152 150 147 144 140 138 137 133 130 129 127 126 124 122 122 122 123 123 122 121 121 120 118 117 117 118 118 118 118 118 118 118 118 118 119 119 119 120 118 115 114 112 109 105 101 99 95 93 96 99 103 110 117 123 129 131 132 133 131 131 130 126 125 127 127 129 130 126 119 111 102 94 90 85 80 79 75 70 65 60 55 51 48
158 156 156 154 151 148 145 143 141 138 134 132 130 129 127 126 125 125 126 126 126 126 125 123 122 121 121 122 123 122 122 121 121 120 120 120 120 120 121 121 119 117 116 115 112 107 102 96 92 92 93 95 100 109 117 123 131 134 134 133 132 134 133 129 128 130 133 133 133 131 123 115 106 97 92 87 82 78 75 70 64 60 56 51 48
164 161 159 157 156 153 150 147 145 143 139 136 134 132 131 130 129 128 129 128 129 130 130 129 128 126 126 127 128 128 128 126 125 124 123 124 124 123 123 122 120 119 118 118 117 112 105 99 94 92 91 94 102 109 118 125 132 134 134 133 132 134 134 133 133 134 138 138 138 137 129 119 110 101 94 89 85 79 75 70 63 59 55 51 48
169 166 164 162 161 158 155 152 150 148 145 141 139 137 135 135 133 133 133 131 131 132 133 133 133 132 131 132 132 132 132 131 129 128 127 127 127 127 127 126 123 122 121 120 118 114 109 103 99 95 92 98 107 113 119 126 131 133 133 132 132 134 133 133 135 137 140 142 142 141 134 124 113 104 96 91 88 82 76 70 63 57 52 48 47
172 171 169 167 165 164 161 158 156 154 152 150 146 144 142 140 139 138 137 136 135 135 135 135 136 137 137 137 137 136 136 135 133 131 131 131 131 130 129 127 125 123 123 121 117 113 111 105 103 101 97 102 109 114 120 128 131 133 134 132 130 131 131 131 134 137 141 143 144 143 139 130 118 108 101 95 89 85 78 70 63 55 48 45 44
176 175 173 171 169 169 167 164 161 159 158 156 153 151 149 146 144 142 141 140 140 138 138 138 138 140 141 141 141 141 141 140 137 136 135 134 132 131 130 128 126 125 124 122 117 115 113 107 106 106 104 108 111 114 120 128 130 131 133 134 131 129 127 127 128 132 137 141 144 146 143 136 123 113 106 99 90 84 77 68 61 53 47 44 41
179 178 177 175 173 172 172 169 166 164 162 161 160 158 154 151 149 146 145 144 143 142 142 142 141 142 144 144 144 145 145 145 144 142 141 139 136 133 132 130 127 126 125 124 120 117 114 107 104 103 105 113 117 117 118 122 128 132 132 133 134 131 126 124 123 127 133 138 142 145 146 141 130 121 113 104 92 82 74 64 56 49 44 41 38
181 181 180 179 177 176 176 174 171 169 167 166 164 161 158 156 153 150 148 147 147 146 146 146 145 145 146 147 147 147 148 148 147 147 146 144 142 140 138 135 132 130 128 126 123 120 115 109 106 104 104 113 120 122 120 119 124 131 134 135 135 131 129 128 126 128 132 136 139 141 145 146 138 131 122 108 92 80 71 59 48 41 39 38 36
184 183 182 181 180 180 179 177 175 174 172 170 166 163 161 159 157 154 153 151 151 152 151 151 151 152 152 152 152 151 151 151 151 151 150 149 147 146 145 143 140 139 136 132 129 127 120 114 111 107 104 110 120 126 125 122 123 125 130 134 133 129 129 131 130 132 133 136 138 137 143 148 144 141 134 119 99 78 63 50 42 35 33 33 34
186 186 185 183 183 182 181 180 179 179 176 172 168 165 164 163 161 160 159 157 158 159 158 157 157 157 157 157 157 157 156 156 156 156 155 155 154 151 150 150 148 147 144 140 138 136 130 123 119 113 109 111 119 126 128 128 128 128 129 131 131 130 131 133 136 140 139 138 141 141 142 146 146 149 146 134 115 81 54 43 41 35 31 31 34
189 188 187 186 185 185 184 183 183 182 180 175 171 170 168 167 167 165 164 164 163 164 163 162 161 161 161 163 163 163 163 162 160 161 160 160 159 157 156 157 156 153 152 149 145 144 140 135 130 123 117 116 121 129 133 135 137 137 136 135 133 132 130 129 136 144 145 145 147 145 143 147 148 145 140 127 106 74 42 33 36 37 33 30 33
190 190 190 188 187 188 187 185 186 186 183 179 176 175 172 171 171 171 170 169 168 166 167 166 166 166 166 168 170 169 169 168 166 165 164 163 161 161 161 160 160 158 157 155 152 150 149 145 142 135 129 125 127 135 140 143 145 144 143 143 142 140 137 133 135 143 149 152 155 154 152 151 148 142 135 112 59 32 33 22 20 28 31 29 30
192 191 191 189 189 190 190 188 188 188 186 183 181 180 178 177 177 176 174 173 170 169 169 171 171 173 174 174 175 175 175 175 173 172 170 168 166 164 164 163 163 162 160 160 156 154 154 152 150 146 141 136 135 141 146 149 152 150 149 149 151 153 151 147 146 147 151 156 158 163 169 170 170 191 214 259 329 345 10 7 4 17 22 19 19
193 193 193 191 191 191 192 191 191 191 189 186 185 186 185 184 183 181 179 176 175 174 173 174 176 178 180 181 181 181 181 181 181 180 178 176 175 173 171 169 169 168 167 165 161 160 161 159 158 155 150 146 144 146 150 155 159 160 159 158 160 162 162 162 160 157 159 167 170 170 178 184 187 206 246 279 294 321 342 338 346 3 7 5 5
194 194 194 194 193 193 193 193 194 194 192 190 189 190 190 190 190 188 185 182 180 180 179 180 181 182 184 186 186 185 186 186 186 187 187 185 184 183 181 179 178 177 176 174 170 168 169 168 166 163 159 157 155 153 154 159 165 170 171 171 173 173 173 175 174 173 177 182 186 184 189 206 209 213 250 276 286 304 316 319 332 345 350 353 353